Time,TemperatureF,DewpointF,PressureIn,WindDirection,WindDirectionDegrees,WindSpeedMPH,WindSpeedGustMPH,Humidity,HourlyPrecipIn,Conditions,Clouds,dailyrainin,SoftwareType,DateUTC
2013-04-20 00:01:00,41.0,29.4,29.67,WSW,258,0.0,0.0,63,0.00,,---,0.00,VWS V14.01,2013-04-20 06:01:00,
2013-04-20 00:06:00,40.8,29.2,29.67,WSW,258,0.0,0.0,63,0.00,,---,0.00,VWS V14.01,2013-04-20 06:06:00,
2013-04-20 00:11:00,40.8,28.8,29.67,WSW,258,0.0,0.0,62,0.00,,---,0.00,VWS V14.01,2013-04-20 06:11:00,
2013-04-20 00:16:00,40.8,28.8,29.67,WSW,258,0.0,0.0,62,0.00,,---,0.00,VWS V14.01,2013-04-20 06:16:00,
2013-04-20 00:21:00,40.8,28.4,29.67,West,280,0.0,0.0,61,0.00,,---,0.00,VWS V14.01,2013-04-20 06:21:00,
2013-04-20 00:26:00,41.0,28.2,29.67,West,265,5.8,7.2,60,0.00,,---,0.00,VWS V14.01,2013-04-20 06:26:00,
2013-04-20 00:31:00,41.2,27.5,29.67,West,276,3.1,5.8,58,0.00,,---,0.00,VWS V14.01,2013-04-20 06:31:00,
2013-04-20 00:36:00,41.0,27.4,29.64,West,279,4.0,4.0,58,0.00,,---,0.00,VWS V14.01,2013-04-20 06:36:00,
2013-04-20 00:41:00,41.0,27.4,29.64,WNW,296,3.1,4.9,58,0.00,,---,0.00,VWS V14.01,2013-04-20 06:41:00,
2013-04-20 00:46:00,41.0,27.4,29.64,WNW,295,2.7,4.0,58,0.00,,---,0.00,VWS V14.01,2013-04-20 06:46:00,
2013-04-20 00:51:00,41.0,27.4,29.67,WNW,303,5.4,5.4,58,0.00,,---,0.00,VWS V14.01,2013-04-20 06:51:00,
2013-04-20 00:56:00,41.0,27.4,29.67,WNW,284,3.1,4.0,58,0.00,,---,0.00,VWS V14.01,2013-04-20 06:56:00,
2013-04-20 01:01:00,41.0,27.4,29.67,WNW,284,2.7,4.9,58,0.00,,---,0.00,VWS V14.01,2013-04-20 07:01:00,
2013-04-20 01:06:00,41.0,27.4,29.67,WNW,286,4.9,5.4,58,0.00,,---,0.00,VWS V14.01,2013-04-20 07:06:00,
2013-04-20 01:11:00,41.0,27.4,29.67,WNW,292,3.1,6.3,58,0.00,,---,0.00,VWS V14.01,2013-04-20 07:11:00,
2013-04-20 01:16:00,41.0,27.4,29.67,WNW,296,3.1,3.6,58,0.00,,---,0.00,VWS V14.01,2013-04-20 07:16:00,
2013-04-20 01:21:00,40.8,27.6,29.67,West,260,0.0,3.6,59,0.00,,---,0.00,VWS V14.01,2013-04-20 07:21:00,
2013-04-20 01:26:00,40.6,27.5,29.67,West,267,2.7,5.8,59,0.00,,---,0.00,VWS V14.01,2013-04-20 07:26:00,
2013-04-20 01:31:00,40.6,27.9,29.67,WSW,245,3.1,3.1,60,0.00,,---,0.00,VWS V14.01,2013-04-20 07:31:00,
2013-04-20 01:36:00,40.3,27.9,29.67,SW,236,4.0,6.3,61,0.00,,---,0.00,VWS V14.01,2013-04-20 07:36:00,
2013-04-20 01:40:00,40.1,28.1,29.67,West,277,3.6,3.6,62,0.00,,---,0.00,VWS V14.01,2013-04-20 07:40:00,
2013-04-20 01:45:00,39.9,28.4,29.67,WSW,240,3.1,4.9,63,0.00,,---,0.00,VWS V14.01,2013-04-20 07:45:00,
2013-04-20 01:50:00,39.9,28.8,29.67,West,266,5.4,6.3,64,0.00,,---,0.00,VWS V14.01,2013-04-20 07:50:00,
2013-04-20 01:55:00,39.9,28.8,29.67,NW,309,4.5,4.5,64,0.00,,---,0.00,VWS V14.01,2013-04-20 07:55:00,
2013-04-20 02:00:00,40.1,28.1,29.67,WSW,250,5.4,5.4,62,0.00,,---,0.00,VWS V14.01,2013-04-20 08:00:00,
2013-04-20 02:05:00,40.1,28.1,29.67,West,259,3.6,4.5,62,0.00,,---,0.00,VWS V14.01,2013-04-20 08:05:00,
2013-04-20 02:10:00,39.9,27.6,29.67,WSW,248,2.2,3.1,61,0.00,,---,0.00,VWS V14.01,2013-04-20 08:10:00,
2013-04-20 02:15:00,39.7,27.8,29.67,West,265,2.7,4.0,62,0.00,,---,0.00,VWS V14.01,2013-04-20 08:15:00,
2013-04-20 02:20:00,39.7,27.8,29.67,NW,308,3.6,4.0,62,0.00,,---,0.00,VWS V14.01,2013-04-20 08:20:00,
2013-04-20 02:25:00,39.7,27.8,29.67,West,265,3.6,5.4,62,0.00,,---,0.00,VWS V14.01,2013-04-20 08:25:00,
2013-04-20 02:30:00,39.9,27.2,29.67,NW,312,5.8,5.8,60,0.00,,---,0.00,VWS V14.01,2013-04-20 08:30:00,
2013-04-20 02:35:00,39.9,26.8,29.67,NW,321,3.1,4.0,59,0.00,,---,0.00,VWS V14.01,2013-04-20 08:35:00,
2013-04-20 02:40:00,39.9,26.8,29.67,NW,316,3.6,3.6,59,0.00,,---,0.00,VWS V14.01,2013-04-20 08:40:00,
2013-04-20 02:45:00,39.9,26.8,29.67,NW,309,2.2,3.6,59,0.00,,---,0.00,VWS V14.01,2013-04-20 08:45:00,
2013-04-20 02:50:00,39.7,26.6,29.67,NW,318,3.1,3.1,59,0.00,,---,0.00,VWS V14.01,2013-04-20 08:50:00,
2013-04-20 02:55:00,39.7,26.2,29.67,WNW,296,0.0,0.0,58,0.00,,---,0.00,VWS V14.01,2013-04-20 08:55:00,
2013-04-20 03:00:00,39.6,26.4,29.67,West,263,0.0,0.0,59,0.00,,---,0.00,VWS V14.01,2013-04-20 09:00:00,
2013-04-20 03:05:00,39.4,26.3,29.67,West,281,0.0,0.0,59,0.00,,---,0.00,VWS V14.01,2013-04-20 09:05:00,
2013-04-20 03:10:00,39.6,26.0,29.67,WSW,255,2.7,3.1,58,0.00,,---,0.00,VWS V14.01,2013-04-20 09:10:00,
2013-04-20 03:15:00,39.6,26.0,29.67,West,261,2.7,4.0,58,0.00,,---,0.00,VWS V14.01,2013-04-20 09:15:00,
2013-04-20 03:20:00,39.7,26.2,29.67,WSW,248,0.0,0.0,58,0.00,,---,0.00,VWS V14.01,2013-04-20 09:20:00,
2013-04-20 03:25:00,39.7,25.8,29.67,NW,307,3.6,5.8,57,0.00,,---,0.00,VWS V14.01,2013-04-20 09:25:00,
2013-04-20 03:30:00,39.7,26.2,29.67,NW,305,6.3,6.3,58,0.00,,---,0.00,VWS V14.01,2013-04-20 09:30:00,
2013-04-20 03:35:00,39.7,27.0,29.67,WNW,301,2.7,5.4,60,0.00,,---,0.00,VWS V14.01,2013-04-20 09:35:00,
2013-04-20 03:40:00,39.4,27.5,29.67,WNW,291,4.0,5.4,62,0.00,,---,0.00,VWS V14.01,2013-04-20 09:40:00,
2013-04-20 03:45:00,39.0,28.6,29.67,WNW,292,5.8,7.6,66,0.00,,---,0.00,VWS V14.01,2013-04-20 09:45:00,
2013-04-20 03:50:00,38.8,29.2,29.67,WNW,288,5.4,5.4,68,0.00,,---,0.00,VWS V14.01,2013-04-20 09:50:00,
2013-04-20 03:55:00,38.7,29.4,29.67,WNW,301,3.6,3.6,69,0.00,,---,0.00,VWS V14.01,2013-04-20 09:55:00,
2013-04-20 04:00:00,38.5,29.6,29.67,West,273,5.4,5.4,70,0.00,,---,0.00,VWS V14.01,2013-04-20 10:00:00,
2013-04-20 04:05:00,38.3,29.7,29.67,West,272,4.0,4.9,71,0.00,,---,0.00,VWS V14.01,2013-04-20 10:05:00,
2013-04-20 04:10:00,38.1,29.6,29.67,WSW,248,3.6,4.9,71,0.00,,---,0.00,VWS V14.01,2013-04-20 10:10:00,
2013-04-20 04:15:00,37.9,30.1,29.67,SW,233,0.0,3.6,73,0.00,,---,0.00,VWS V14.01,2013-04-20 10:15:00,
2013-04-20 04:20:00,37.9,30.1,29.67,West,262,0.0,0.0,73,0.00,,---,0.00,VWS V14.01,2013-04-20 10:20:00,
2013-04-20 04:25:00,37.8,29.9,29.67,WSW,252,0.0,0.0,73,0.00,,---,0.00,VWS V14.01,2013-04-20 10:25:00,
2013-04-20 04:30:00,37.8,29.9,29.67,NW,304,2.2,2.2,73,0.00,,---,0.00,VWS V14.01,2013-04-20 10:30:00,
2013-04-20 04:35:00,37.9,30.1,29.67,West,267,0.0,0.0,73,0.00,,---,0.00,VWS V14.01,2013-04-20 10:35:00,
2013-04-20 04:40:00,38.1,30.2,29.67,West,279,2.7,2.7,73,0.00,,---,0.00,VWS V14.01,2013-04-20 10:40:00,
2013-04-20 04:45:00,38.3,30.1,29.67,WNW,300,0.0,0.0,72,0.00,,---,0.00,VWS V14.01,2013-04-20 10:45:00,
2013-04-20 04:50:00,38.3,29.7,29.67,ESE,106,2.7,2.7,71,0.00,,---,0.00,VWS V14.01,2013-04-20 10:50:00,
2013-04-20 04:55:00,38.3,29.7,29.67,ESE,106,0.0,2.2,71,0.00,,---,0.00,VWS V14.01,2013-04-20 10:55:00,
2013-04-20 05:00:00,38.5,29.2,29.67,SE,137,0.0,0.0,69,0.00,,---,0.00,VWS V14.01,2013-04-20 11:00:00,
2013-04-20 05:05:00,38.5,29.2,29.67,ESE,117,0.0,0.0,69,0.00,,---,0.00,VWS V14.01,2013-04-20 11:05:00,
2013-04-20 05:10:00,38.5,28.9,29.67,ESE,120,2.7,3.6,68,0.00,,---,0.00,VWS V14.01,2013-04-20 11:10:00,
2013-04-20 05:15:00,38.5,28.9,29.67,ESE,111,0.0,0.0,68,0.00,,---,0.00,VWS V14.01,2013-04-20 11:15:00,
2013-04-20 05:20:00,38.7,29.4,29.67,ESE,111,0.0,0.0,69,0.00,,---,0.00,VWS V14.01,2013-04-20 11:20:00,
2013-04-20 05:25:00,38.5,29.2,29.67,ENE,67,6.3,6.3,69,0.00,,---,0.00,VWS V14.01,2013-04-20 11:25:00,
2013-04-20 05:30:00,38.7,29.0,29.67,ENE,61,2.2,4.0,68,0.00,,---,0.00,VWS V14.01,2013-04-20 11:30:00,
2013-04-20 05:35:00,39.4,27.9,29.64,SE,124,3.1,5.8,63,0.00,,---,0.00,VWS V14.01,2013-04-20 11:35:00,
2013-04-20 05:40:00,39.4,28.2,29.64,ENE,60,4.0,4.0,64,0.00,,---,0.00,VWS V14.01,2013-04-20 11:40:00,
2013-04-20 05:45:00,39.4,27.9,29.64,SE,142,2.7,3.6,63,0.00,,---,0.00,VWS V14.01,2013-04-20 11:45:00,
2013-04-20 05:50:00,39.4,27.9,29.67,ENE,59,0.0,0.0,63,0.00,,---,0.00,VWS V14.01,2013-04-20 11:50:00,
2013-04-20 05:55:00,39.4,27.9,29.67,NE,55,0.0,0.0,63,0.00,,---,0.00,VWS V14.01,2013-04-20 11:55:00,
2013-04-20 06:00:00,39.4,27.5,29.67,East,99,0.0,0.0,62,0.00,,---,0.00,VWS V14.01,2013-04-20 12:00:00,
2013-04-20 06:05:00,39.6,27.6,29.67,East,99,0.0,0.0,62,0.00,,---,0.00,VWS V14.01,2013-04-20 12:05:00,
2013-04-20 06:10:00,39.6,27.6,29.67,East,99,0.0,0.0,62,0.00,,---,0.00,VWS V14.01,2013-04-20 12:10:00,
2013-04-20 06:15:00,39.7,27.8,29.67,SSE,147,4.0,4.0,62,0.00,,---,0.00,VWS V14.01,2013-04-20 12:15:00,
2013-04-20 06:20:00,39.7,26.2,29.67,SE,126,4.9,4.9,58,0.00,,---,0.00,VWS V14.01,2013-04-20 12:20:00,
2013-04-20 06:25:00,40.1,26.5,29.67,WSW,258,0.0,0.0,58,0.00,,---,0.00,VWS V14.01,2013-04-20 12:25:00,
2013-04-20 06:30:00,40.3,26.7,29.67,NNE,17,0.0,4.0,58,0.00,,---,0.00,VWS V14.01,2013-04-20 12:30:00,
2013-04-20 06:35:00,40.1,26.5,29.67,NNW,329,0.0,2.2,58,0.00,,---,0.00,VWS V14.01,2013-04-20 12:35:00,
2013-04-20 06:40:00,39.9,26.8,29.67,NW,308,2.7,3.1,59,0.00,,---,0.00,VWS V14.01,2013-04-20 12:40:00,
2013-04-20 06:45:00,39.7,27.0,29.67,WNW,296,0.0,0.0,60,0.00,,---,0.00,VWS V14.01,2013-04-20 12:45:00,
2013-04-20 06:50:00,39.7,26.6,29.67,NNW,334,0.0,3.1,59,0.00,,---,0.00,VWS V14.01,2013-04-20 12:50:00,
2013-04-20 06:55:00,39.7,26.2,29.67,WNW,300,5.4,5.4,58,0.00,,---,0.00,VWS V14.01,2013-04-20 12:55:00,
2013-04-20 07:00:00,39.7,26.2,29.67,NW,322,0.0,0.0,58,0.00,,---,0.00,VWS V14.01,2013-04-20 13:00:00,
2013-04-20 07:05:00,39.6,25.6,29.67,WNW,301,2.7,3.1,57,0.00,,---,0.00,VWS V14.01,2013-04-20 13:05:00,
2013-04-20 07:10:00,39.4,25.4,29.67,NW,305,0.0,0.0,57,0.00,,---,0.00,VWS V14.01,2013-04-20 13:10:00,
2013-04-20 07:15:00,39.2,25.7,29.67,WNW,295,2.7,3.1,58,0.00,,---,0.00,VWS V14.01,2013-04-20 13:15:00,
2013-04-20 07:20:00,39.2,25.7,29.67,NNW,328,0.0,0.0,58,0.00,,---,0.00,VWS V14.01,2013-04-20 13:20:00,
2013-04-20 07:25:00,39.2,25.7,29.67,NNW,328,0.0,0.0,58,0.00,,---,0.00,VWS V14.01,2013-04-20 13:25:00,
2013-04-20 07:30:00,39.4,26.3,29.67,NNW,333,0.0,0.0,59,0.00,,---,0.00,VWS V14.01,2013-04-20 13:30:00,
2013-04-20 07:35:00,39.7,26.6,29.70,NNW,333,0.0,0.0,59,0.00,,---,0.00,VWS V14.01,2013-04-20 13:35:00,
2013-04-20 07:40:00,40.1,25.2,29.70,WNW,284,3.1,3.1,55,0.00,,---,0.00,VWS V14.01,2013-04-20 13:40:00,
2013-04-20 07:45:00,40.6,23.5,29.70,West,277,3.1,3.1,50,0.00,,---,0.00,VWS V14.01,2013-04-20 13:45:00,
2013-04-20 07:50:00,40.8,23.1,29.70,West,264,5.4,7.6,49,0.00,,---,0.00,VWS V14.01,2013-04-20 13:50:00,
2013-04-20 07:55:00,41.0,22.3,29.70,NW,307,5.8,11.0,47,0.00,,---,0.00,VWS V14.01,2013-04-20 13:55:00,
2013-04-20 08:00:00,41.2,21.5,29.70,WNW,293,10.1,10.1,45,0.00,,---,0.00,VWS V14.01,2013-04-20 14:00:00,
2013-04-20 08:05:00,41.5,21.3,29.67,NW,316,4.0,5.4,44,0.00,,---,0.00,VWS V14.01,2013-04-20 14:05:00,
2013-04-20 08:10:00,41.7,20.9,29.67,WSW,253,8.1,8.1,43,0.00,,---,0.00,VWS V14.01,2013-04-20 14:10:00,
2013-04-20 08:15:00,42.1,21.2,29.67,NW,313,6.3,6.3,43,0.00,,---,0.00,VWS V14.01,2013-04-20 14:15:00,
2013-04-20 08:20:00,42.3,21.4,29.70,WNW,283,7.6,7.6,43,0.00,,---,0.00,VWS V14.01,2013-04-20 14:20:00,
2013-04-20 08:25:00,42.3,20.3,29.70,West,265,5.4,10.5,41,0.00,,---,0.00,VWS V14.01,2013-04-20 14:25:00,
2013-04-20 08:30:00,42.3,20.8,29.70,WSW,245,7.6,11.0,42,0.00,,---,0.00,VWS V14.01,2013-04-20 14:30:00,
2013-04-20 08:35:00,42.3,20.3,29.70,WSW,250,9.6,9.6,41,0.00,,---,0.00,VWS V14.01,2013-04-20 14:35:00,
2013-04-20 08:40:00,42.3,20.3,29.70,WSW,252,5.8,12.3,41,0.00,,---,0.00,VWS V14.01,2013-04-20 14:40:00,
2013-04-20 08:45:00,42.4,19.8,29.70,WSW,256,10.5,10.5,40,0.00,,---,0.00,VWS V14.01,2013-04-20 14:45:00,
2013-04-20 08:50:00,42.3,19.7,29.70,SW,220,8.7,13.2,40,0.00,,---,0.00,VWS V14.01,2013-04-20 14:50:00,
2013-04-20 08:55:00,42.4,19.8,29.70,WNW,287,8.7,8.7,40,0.00,,---,0.00,VWS V14.01,2013-04-20 14:55:00,
2013-04-20 09:00:00,42.8,20.2,29.70,West,280,12.8,12.8,40,0.00,,---,0.00,VWS V14.01,2013-04-20 15:00:00,
2013-04-20 09:05:00,42.8,20.2,29.70,NW,318,4.9,12.3,40,0.00,,---,0.00,VWS V14.01,2013-04-20 15:05:00,
2013-04-20 09:10:00,42.6,20.0,29.70,WNW,289,7.6,10.1,40,0.00,,---,0.00,VWS V14.01,2013-04-20 15:10:00,
2013-04-20 09:15:00,42.3,19.7,29.70,West,279,11.9,11.9,40,0.00,,---,0.00,VWS V14.01,2013-04-20 15:15:00,
2013-04-20 09:20:00,42.3,20.3,29.70,West,279,8.7,8.7,41,0.00,,---,0.00,VWS V14.01,2013-04-20 15:20:00,
2013-04-20 09:25:00,42.6,20.6,29.70,WNW,294,10.5,10.5,41,0.00,,---,0.00,VWS V14.01,2013-04-20 15:25:00,
2013-04-20 09:30:00,43.0,20.3,29.70,WSW,254,5.4,8.1,40,0.00,,---,0.00,VWS V14.01,2013-04-20 15:30:00,
2013-04-20 09:35:00,43.3,20.1,29.73,WNW,297,11.0,11.4,39,0.00,,---,0.00,VWS V14.01,2013-04-20 15:35:00,
2013-04-20 09:40:00,43.3,20.1,29.73,SSW,205,5.4,8.3,39,0.00,,---,0.00,VWS V14.01,2013-04-20 15:40:00,
2013-04-20 09:45:00,43.5,20.2,29.73,WSW,258,7.6,10.1,39,0.00,,---,0.00,VWS V14.01,2013-04-20 15:45:00,
2013-04-20 09:50:00,43.5,20.2,29.73,NW,324,7.6,10.1,39,0.00,,---,0.00,VWS V14.01,2013-04-20 15:50:00,
2013-04-20 09:55:00,44.1,20.7,29.73,West,273,19.7,19.7,39,0.00,,---,0.00,VWS V14.01,2013-04-20 15:55:00,
2013-04-20 10:00:00,44.2,20.9,29.73,WNW,291,8.3,8.3,39,0.00,,---,0.00,VWS V14.01,2013-04-20 16:00:00,
2013-04-20 10:05:00,45.0,20.9,29.73,West,277,8.3,12.3,38,0.00,,---,0.00,VWS V14.01,2013-04-20 16:05:00,
2013-04-20 10:10:00,45.3,21.2,29.70,West,267,6.3,10.5,38,0.00,,---,0.00,VWS V14.01,2013-04-20 16:10:00,
2013-04-20 10:15:00,45.3,21.2,29.70,West,273,13.2,13.2,38,0.00,,---,0.00,VWS V14.01,2013-04-20 16:15:00,
2013-04-20 10:20:00,45.1,21.1,29.70,NW,310,10.1,11.9,38,0.00,,---,0.00,VWS V14.01,2013-04-20 16:20:00,
2013-04-20 10:25:00,44.8,20.7,29.70,West,259,5.8,8.7,38,0.00,,---,0.00,VWS V14.01,2013-04-20 16:25:00,
2013-04-20 10:30:00,44.6,20.6,29.70,West,266,8.7,8.7,38,0.00,,---,0.00,VWS V14.01,2013-04-20 16:30:00,
2013-04-20 10:35:00,44.6,20.6,29.70,WNW,287,10.1,10.1,38,0.00,,---,0.00,VWS V14.01,2013-04-20 16:35:00,
2013-04-20 10:40:00,44.6,20.6,29.70,WNW,288,5.4,10.5,38,0.00,,---,0.00,VWS V14.01,2013-04-20 16:40:00,
2013-04-20 10:45:00,44.8,20.7,29.70,West,269,10.5,10.5,38,0.00,,---,0.00,VWS V14.01,2013-04-20 16:45:00,
2013-04-20 10:50:00,44.8,20.7,29.70,West,266,14.5,14.5,38,0.00,,---,0.00,VWS V14.01,2013-04-20 16:50:00,
2013-04-20 10:55:00,45.1,21.1,29.73,WSW,246,15.4,15.4,38,0.00,,---,0.00,VWS V14.01,2013-04-20 16:55:00,
2013-04-20 11:00:00,45.3,21.2,29.73,WSW,246,14.1,14.1,38,0.00,,---,0.00,VWS V14.01,2013-04-20 17:00:00,
2013-04-20 11:05:00,45.1,21.1,29.73,WSW,244,13.2,13.2,38,0.00,,---,0.00,VWS V14.01,2013-04-20 17:05:00,
2013-04-20 11:09:00,45.1,21.1,29.73,WNW,286,13.6,13.6,38,0.00,,---,0.00,VWS V14.01,2013-04-20 17:09:00,
2013-04-20 11:14:00,45.3,21.8,29.73,WNW,297,8.7,8.7,39,0.00,,---,0.00,VWS V14.01,2013-04-20 17:14:00,
2013-04-20 11:19:00,45.3,21.2,29.73,SW,231,5.4,7.6,38,0.00,,---,0.00,VWS V14.01,2013-04-20 17:19:00,
2013-04-20 11:24:00,45.1,21.1,29.73,West,260,3.6,10.1,38,0.00,,---,0.00,VWS V14.01,2013-04-20 17:24:00,
2013-04-20 11:29:00,45.0,20.9,29.73,WNW,282,5.4,11.9,38,0.00,,---,0.00,VWS V14.01,2013-04-20 17:29:00,
2013-04-20 11:34:00,45.0,22.7,29.73,West,259,12.8,12.8,41,0.00,,---,0.00,VWS V14.01,2013-04-20 17:34:00,
2013-04-20 11:39:00,44.1,23.0,29.73,WNW,297,11.0,11.4,43,0.00,,---,0.00,VWS V14.01,2013-04-20 17:39:00,
2013-04-20 11:44:00,42.8,23.5,29.73,WNW,283,8.7,9.6,46,0.00,,---,0.00,VWS V14.01,2013-04-20 17:44:00,
2013-04-20 11:49:00,42.8,25.0,29.73,WNW,289,5.8,8.7,49,0.00,,---,0.00,VWS V14.01,2013-04-20 17:49:00,
2013-04-20 11:54:00,43.3,25.0,29.73,NW,306,9.6,9.6,48,0.00,,---,0.00,VWS V14.01,2013-04-20 17:54:00,
2013-04-20 11:59:00,43.5,25.1,29.73,NW,309,8.3,8.7,48,0.00,,---,0.00,VWS V14.01,2013-04-20 17:59:00,
2013-04-20 12:04:00,43.7,24.3,29.73,WSW,251,7.6,7.6,46,0.00,,---,0.00,VWS V14.01,2013-04-20 18:04:00,
2013-04-20 12:09:00,43.9,21.7,29.73,NW,308,10.5,10.5,41,0.00,,---,0.00,VWS V14.01,2013-04-20 18:09:00,
2013-04-20 12:14:00,44.6,21.8,29.73,WNW,302,7.6,7.6,40,0.00,,---,0.00,VWS V14.01,2013-04-20 18:14:00,
2013-04-20 12:19:00,45.3,21.8,29.73,SW,232,5.4,11.0,39,0.00,,---,0.00,VWS V14.01,2013-04-20 18:19:00,
2013-04-20 12:24:00,45.7,22.8,29.73,West,268,7.6,8.7,40,0.00,,---,0.00,VWS V14.01,2013-04-20 18:24:00,
2013-04-20 12:29:00,45.1,22.9,29.73,West,265,8.1,9.2,41,0.00,,---,0.00,VWS V14.01,2013-04-20 18:29:00,
2013-04-20 12:34:00,45.0,22.7,29.73,WNW,293,12.3,12.3,41,0.00,,---,0.00,VWS V14.01,2013-04-20 18:34:00,
2013-04-20 12:39:00,44.8,22.5,29.70,NW,307,8.3,12.3,41,0.00,,---,0.00,VWS V14.01,2013-04-20 18:39:00,
2013-04-20 12:44:00,44.8,23.1,29.70,WSW,248,8.1,11.0,42,0.00,,---,0.00,VWS V14.01,2013-04-20 18:44:00,
2013-04-20 12:49:00,45.9,23.5,29.70,WSW,256,7.6,10.1,41,0.00,,---,0.00,VWS V14.01,2013-04-20 18:49:00,
2013-04-20 12:54:00,46.2,22.6,29.70,NW,304,5.4,5.4,39,0.00,,---,0.00,VWS V14.01,2013-04-20 18:54:00,
2013-04-20 12:59:00,46.4,22.2,29.70,West,280,7.6,8.1,38,0.00,,---,0.00,VWS V14.01,2013-04-20 18:59:00,
2013-04-20 13:04:00,46.9,22.0,29.70,West,266,11.0,11.9,37,0.00,,---,0.00,VWS V14.01,2013-04-20 19:04:00,
2013-04-20 13:09:00,47.5,21.9,29.70,West,276,12.3,12.3,36,0.00,,---,0.00,VWS V14.01,2013-04-20 19:09:00,
2013-04-20 13:14:00,48.4,22.0,29.70,WSW,240,8.1,11.0,35,0.00,,---,0.00,VWS V14.01,2013-04-20 19:14:00,
2013-04-20 13:19:00,48.0,21.0,29.70,West,272,15.4,15.4,34,0.00,,---,0.00,VWS V14.01,2013-04-20 19:19:00,
2013-04-20 13:24:00,48.4,21.3,29.67,WSW,240,6.3,6.3,34,0.00,,---,0.00,VWS V14.01,2013-04-20 19:24:00,
2013-04-20 13:29:00,48.0,21.7,29.67,West,271,10.5,10.5,35,0.00,,---,0.00,VWS V14.01,2013-04-20 19:29:00,
2013-04-20 13:34:00,47.8,22.9,29.67,NW,304,5.4,5.4,37,0.00,,---,0.00,VWS V14.01,2013-04-20 19:34:00,
2013-04-20 13:39:00,47.5,21.2,29.70,WNW,290,8.3,8.3,35,0.00,,---,0.00,VWS V14.01,2013-04-20 19:39:00,
2013-04-20 13:44:00,47.1,20.9,29.70,WSW,240,5.4,8.3,35,0.00,,---,0.00,VWS V14.01,2013-04-20 19:44:00,
2013-04-20 13:49:00,47.3,20.4,29.70,WSW,247,10.5,13.6,34,0.00,,---,0.00,VWS V14.01,2013-04-20 19:49:00,
2013-04-20 13:54:00,46.9,20.0,29.70,WNW,301,3.6,5.4,34,0.00,,---,0.00,VWS V14.01,2013-04-20 19:54:00,
2013-04-20 13:59:00,47.1,20.2,29.70,WSW,257,15.4,15.4,34,0.00,,---,0.00,VWS V14.01,2013-04-20 19:59:00,
2013-04-20 14:04:00,47.1,20.2,29.70,NNW,332,9.6,15.0,34,0.00,,---,0.00,VWS V14.01,2013-04-20 20:04:00,
2013-04-20 14:09:00,47.3,21.7,29.70,NW,316,10.5,10.5,36,0.00,,---,0.00,VWS V14.01,2013-04-20 20:09:00,
2013-04-20 14:14:00,47.5,20.5,29.70,WSW,256,16.3,16.3,34,0.00,,---,0.00,VWS V14.01,2013-04-20 20:14:00,
2013-04-20 14:19:00,47.1,20.9,29.70,SW,234,8.3,13.2,35,0.00,,---,0.00,VWS V14.01,2013-04-20 20:19:00,
2013-04-20 14:24:00,47.1,20.9,29.70,WNW,302,8.1,10.1,35,0.00,,---,0.00,VWS V14.01,2013-04-20 20:24:00,
2013-04-20 14:29:00,48.7,20.2,29.70,SW,231,15.0,19.2,32,0.00,,---,0.00,VWS V14.01,2013-04-20 20:29:00,
2013-04-20 14:34:00,49.8,20.4,29.70,SW,224,12.3,12.3,31,0.00,,---,0.00,VWS V14.01,2013-04-20 20:34:00,
2013-04-20 14:39:00,48.7,19.5,29.70,WSW,244,14.5,14.5,31,0.00,,---,0.00,VWS V14.01,2013-04-20 20:39:00,
2013-04-20 14:44:00,47.8,19.4,29.70,West,273,16.8,16.8,32,0.00,,---,0.00,VWS V14.01,2013-04-20 20:44:00,
2013-04-20 14:49:00,47.8,19.4,29.70,WNW,294,4.0,8.3,32,0.00,,---,0.00,VWS V14.01,2013-04-20 20:49:00,
2013-04-20 14:54:00,48.0,19.6,29.70,West,272,10.1,12.3,32,0.00,,---,0.00,VWS V14.01,2013-04-20 20:54:00,
2013-04-20 14:59:00,48.4,19.2,29.70,SW,229,12.8,13.2,31,0.00,,---,0.00,VWS V14.01,2013-04-20 20:59:00,
2013-04-20 15:04:00,48.6,20.1,29.70,SW,236,8.3,8.7,32,0.00,,---,0.00,VWS V14.01,2013-04-20 21:04:00,
2013-04-20 15:09:00,49.3,19.9,29.67,WNW,284,8.3,8.3,31,0.00,,---,0.00,VWS V14.01,2013-04-20 21:09:00,
2013-04-20 15:14:00,49.8,20.4,29.67,West,274,15.4,15.4,31,0.00,,---,0.00,VWS V14.01,2013-04-20 21:14:00,
2013-04-20 15:19:00,49.1,19.8,29.67,WNW,291,13.2,19.7,31,0.00,,---,0.00,VWS V14.01,2013-04-20 21:19:00,
2013-04-20 15:24:00,48.2,19.0,29.70,WSW,257,19.7,19.7,31,0.00,,---,0.00,VWS V14.01,2013-04-20 21:24:00,
2013-04-20 15:29:00,47.8,20.1,29.70,SW,235,8.1,11.9,33,0.00,,---,0.00,VWS V14.01,2013-04-20 21:29:00,
2013-04-20 15:34:00,48.4,21.3,29.70,WNW,296,8.3,8.3,34,0.00,,---,0.00,VWS V14.01,2013-04-20 21:34:00,
2013-04-20 15:39:00,48.9,21.1,29.70,WSW,255,13.2,15.9,33,0.00,,---,0.00,VWS V14.01,2013-04-20 21:39:00,
2013-04-20 15:44:00,48.7,20.9,29.70,SW,222,8.3,8.3,33,0.00,,---,0.00,VWS V14.01,2013-04-20 21:44:00,
2013-04-20 15:49:00,49.1,22.0,29.70,SW,219,8.1,8.1,34,0.00,,---,0.00,VWS V14.01,2013-04-20 21:49:00,
2013-04-20 15:54:00,49.3,21.4,29.70,NW,316,12.8,12.8,33,0.00,,---,0.00,VWS V14.01,2013-04-20 21:54:00,
2013-04-20 15:59:00,49.3,20.7,29.70,WSW,257,5.4,7.6,32,0.00,,---,0.00,VWS V14.01,2013-04-20 21:59:00,
2013-04-20 16:04:00,49.5,19.3,29.70,West,279,13.6,19.2,30,0.00,,---,0.00,VWS V14.01,2013-04-20 22:04:00,
2013-04-20 16:09:00,49.3,19.9,29.67,WNW,286,11.9,11.9,31,0.00,,---,0.00,VWS V14.01,2013-04-20 22:09:00,
2013-04-20 16:14:00,49.3,19.9,29.67,SW,236,4.9,12.3,31,0.00,,---,0.00,VWS V14.01,2013-04-20 22:14:00,
2013-04-20 16:19:00,49.1,19.8,29.67,SW,232,10.1,10.1,31,0.00,,---,0.00,VWS V14.01,2013-04-20 22:19:00,
2013-04-20 16:24:00,49.3,19.9,29.70,WNW,283,10.1,10.1,31,0.00,,---,0.00,VWS V14.01,2013-04-20 22:24:00,
2013-04-20 16:29:00,48.9,19.6,29.70,WNW,303,15.0,15.4,31,0.00,,---,0.00,VWS V14.01,2013-04-20 22:29:00,
2013-04-20 16:34:00,48.6,20.8,29.70,West,260,8.7,9.6,33,0.00,,---,0.00,VWS V14.01,2013-04-20 22:34:00,
2013-04-20 16:39:00,48.4,20.6,29.70,SW,220,2.7,8.3,33,0.00,,---,0.00,VWS V14.01,2013-04-20 22:39:00,
2013-04-20 16:44:00,48.6,20.1,29.70,West,278,10.5,10.5,32,0.00,,---,0.00,VWS V14.01,2013-04-20 22:44:00,
2013-04-20 16:49:00,48.7,20.9,29.70,South,180,10.5,10.5,33,0.00,,---,0.00,VWS V14.01,2013-04-20 22:49:00,
2013-04-20 16:54:00,48.6,20.1,29.70,North,2,7.2,11.0,32,0.00,,---,0.00,VWS V14.01,2013-04-20 22:54:00,
2013-04-20 16:59:00,48.7,19.5,29.70,NW,308,6.3,7.6,31,0.00,,---,0.00,VWS V14.01,2013-04-20 22:59:00,
2013-04-20 17:04:00,49.3,20.7,29.70,WNW,291,5.8,12.8,32,0.00,,---,0.00,VWS V14.01,2013-04-20 23:04:00,
2013-04-20 17:09:00,49.3,20.7,29.70,West,259,12.8,12.8,32,0.00,,---,0.00,VWS V14.01,2013-04-20 23:09:00,
2013-04-20 17:14:00,48.7,20.9,29.70,NNW,328,10.5,13.2,33,0.00,,---,0.00,VWS V14.01,2013-04-20 23:14:00,
2013-04-20 17:19:00,48.6,20.8,29.70,WNW,296,12.3,12.3,33,0.00,,---,0.00,VWS V14.01,2013-04-20 23:19:00,
2013-04-20 17:24:00,48.7,20.9,29.70,West,270,10.5,10.5,33,0.00,,---,0.00,VWS V14.01,2013-04-20 23:24:00,
2013-04-20 17:29:00,48.7,20.9,29.70,WSW,238,12.8,13.2,33,0.00,,---,0.00,VWS V14.01,2013-04-20 23:29:00,
2013-04-20 17:34:00,48.7,20.2,29.70,NW,314,15.4,15.4,32,0.00,,---,0.00,VWS V14.01,2013-04-20 23:34:00,
2013-04-20 17:39:00,48.7,20.2,29.70,NW,316,13.6,13.6,32,0.00,,---,0.00,VWS V14.01,2013-04-20 23:39:00,
2013-04-20 17:44:00,48.9,19.6,29.70,WNW,287,10.5,12.3,31,0.00,,---,0.00,VWS V14.01,2013-04-20 23:44:00,
2013-04-20 17:49:00,48.6,19.3,29.70,NNW,328,12.3,12.3,31,0.00,,---,0.00,VWS V14.01,2013-04-20 23:49:00,
2013-04-20 17:54:00,48.4,19.2,29.67,WNW,289,7.6,10.5,31,0.00,,---,0.00,VWS V14.01,2013-04-20 23:54:00,
2013-04-20 17:59:00,48.4,19.2,29.67,West,265,12.8,12.8,31,0.00,,---,0.00,VWS V14.01,2013-04-20 23:59:00,
2013-04-20 18:04:00,48.0,19.6,29.67,West,281,8.7,11.0,32,0.00,,---,0.00,VWS V14.01,2013-04-21 00:04:00,
2013-04-20 18:09:00,47.8,18.7,29.70,West,259,15.0,15.0,31,0.00,,---,0.00,VWS V14.01,2013-04-21 00:09:00,
2013-04-20 18:14:00,47.5,18.4,29.70,NW,313,5.8,5.8,31,0.00,,---,0.00,VWS V14.01,2013-04-21 00:14:00,
2013-04-20 18:19:00,47.3,17.5,29.70,NW,306,17.4,17.4,30,0.00,,---,0.00,VWS V14.01,2013-04-21 00:19:00,
2013-04-20 18:24:00,46.9,17.9,29.70,NW,304,10.1,10.1,31,0.00,,---,0.00,VWS V14.01,2013-04-21 00:24:00,
2013-04-20 18:29:00,46.6,17.6,29.70,West,263,15.0,21.5,31,0.00,,---,0.00,VWS V14.01,2013-04-21 00:29:00,
2013-04-20 18:34:00,46.4,17.4,29.70,WNW,292,11.0,13.2,31,0.00,,---,0.00,VWS V14.01,2013-04-21 00:34:00,
2013-04-20 18:39:00,46.4,17.4,29.70,West,280,8.3,8.3,31,0.00,,---,0.00,VWS V14.01,2013-04-21 00:39:00,
2013-04-20 18:44:00,46.2,18.0,29.70,WSW,257,10.1,10.1,32,0.00,,---,0.00,VWS V14.01,2013-04-21 00:44:00,
2013-04-20 18:49:00,45.9,18.4,29.70,NW,324,8.3,8.3,33,0.00,,---,0.00,VWS V14.01,2013-04-21 00:49:00,
2013-04-20 18:54:00,45.5,18.8,29.67,West,265,7.6,7.6,34,0.00,,---,0.00,VWS V14.01,2013-04-21 00:54:00,
2013-04-20 18:59:00,45.3,18.6,29.67,West,266,8.7,8.7,34,0.00,,---,0.00,VWS V14.01,2013-04-21 00:59:00,
2013-04-20 19:04:00,45.0,19.0,29.67,WNW,284,13.2,15.0,35,0.00,,---,0.00,VWS V14.01,2013-04-21 01:04:00,
2013-04-20 19:09:00,44.8,18.8,29.70,West,274,10.1,10.5,35,0.00,,---,0.00,VWS V14.01,2013-04-21 01:09:00,
2013-04-20 19:14:00,44.8,18.8,29.70,WSW,249,5.8,14.5,35,0.00,,---,0.00,VWS V14.01,2013-04-21 01:14:00,
2013-04-20 19:19:00,44.8,18.8,29.70,West,260,7.2,8.1,35,0.00,,---,0.00,VWS V14.01,2013-04-21 01:19:00,
2013-04-20 19:24:00,45.0,19.0,29.67,SSW,210,5.4,8.3,35,0.00,,---,0.00,VWS V14.01,2013-04-21 01:24:00,
2013-04-20 19:29:00,45.0,19.6,29.67,West,270,6.3,6.3,36,0.00,,---,0.00,VWS V14.01,2013-04-21 01:29:00,
2013-04-20 19:34:00,44.8,18.8,29.67,SW,235,8.3,9.2,35,0.00,,---,0.00,VWS V14.01,2013-04-21 01:34:00,
2013-04-20 19:39:00,44.6,18.0,29.70,West,275,11.0,11.0,34,0.00,,---,0.00,VWS V14.01,2013-04-21 01:39:00,
2013-04-20 19:44:00,44.4,17.8,29.70,SW,235,11.9,13.2,34,0.00,,---,0.00,VWS V14.01,2013-04-21 01:44:00,
2013-04-20 19:49:00,44.2,18.3,29.70,WNW,297,12.3,12.3,35,0.00,,---,0.00,VWS V14.01,2013-04-21 01:49:00,
2013-04-20 19:54:00,43.9,18.0,29.70,WSW,256,10.5,11.0,35,0.00,,---,0.00,VWS V14.01,2013-04-21 01:54:00,
2013-04-20 19:59:00,43.5,19.0,29.70,NW,312,8.7,8.7,37,0.00,,---,0.00,VWS V14.01,2013-04-21 01:59:00,
2013-04-20 20:04:00,43.2,19.3,29.70,North,349,11.0,11.4,38,0.00,,---,0.00,VWS V14.01,2013-04-21 02:04:00,
2013-04-20 20:09:00,42.8,19.0,29.70,WNW,291,5.4,8.1,38,0.00,,---,0.00,VWS V14.01,2013-04-21 02:09:00,
2013-04-20 20:14:00,43.0,19.1,29.70,WSW,246,11.0,12.3,38,0.00,,---,0.00,VWS V14.01,2013-04-21 02:14:00,
2013-04-20 20:19:00,43.2,18.7,29.70,WSW,257,12.8,12.8,37,0.00,,---,0.00,VWS V14.01,2013-04-21 02:19:00,
2013-04-20 20:24:00,43.3,18.2,29.70,SW,218,8.1,15.0,36,0.00,,---,0.00,VWS V14.01,2013-04-21 02:24:00,
2013-04-20 20:29:00,43.3,18.2,29.70,NW,305,11.0,12.3,36,0.00,,---,0.00,VWS V14.01,2013-04-21 02:29:00,
2013-04-20 20:34:00,43.2,18.0,29.70,SW,230,8.1,9.2,36,0.00,,---,0.00,VWS V14.01,2013-04-21 02:34:00,
2013-04-20 20:39:00,43.0,18.5,29.73,SSW,212,11.0,11.0,37,0.00,,---,0.00,VWS V14.01,2013-04-21 02:39:00,
2013-04-20 20:44:00,42.8,19.0,29.73,West,275,6.3,6.3,38,0.00,,---,0.00,VWS V14.01,2013-04-21 02:44:00,
2013-04-20 20:49:00,42.6,18.8,29.73,WSW,256,11.9,17.0,38,0.00,,---,0.00,VWS V14.01,2013-04-21 02:49:00,
2013-04-20 20:54:00,42.6,18.8,29.73,WNW,282,15.0,15.0,38,0.00,,---,0.00,VWS V14.01,2013-04-21 02:54:00,
2013-04-20 20:59:00,42.4,19.2,29.73,West,267,13.2,13.2,39,0.00,,---,0.00,VWS V14.01,2013-04-21 02:59:00,
2013-04-20 21:04:00,42.3,19.1,29.73,WSW,252,10.5,13.2,39,0.00,,---,0.00,VWS V14.01,2013-04-21 03:04:00,
2013-04-20 21:09:00,42.1,18.9,29.73,West,271,5.8,6.3,39,0.00,,---,0.00,VWS V14.01,2013-04-21 03:09:00,
2013-04-20 21:14:00,41.9,19.4,29.73,West,266,7.6,8.1,40,0.00,,---,0.00,VWS V14.01,2013-04-21 03:14:00,
2013-04-20 21:19:00,41.7,19.2,29.73,SSW,213,8.1,8.1,40,0.00,,---,0.00,VWS V14.01,2013-04-21 03:19:00,
2013-04-20 21:24:00,41.5,19.6,29.73,West,273,13.2,13.2,41,0.00,,---,0.00,VWS V14.01,2013-04-21 03:24:00,
2013-04-20 21:29:00,41.5,19.0,29.73,NW,307,3.6,4.0,40,0.00,,---,0.00,VWS V14.01,2013-04-21 03:29:00,
2013-04-20 21:34:00,41.5,19.6,29.73,West,260,8.7,8.7,41,0.00,,---,0.00,VWS V14.01,2013-04-21 03:34:00,
2013-04-20 21:39:00,41.4,19.5,29.73,WSW,241,6.3,10.1,41,0.00,,---,0.00,VWS V14.01,2013-04-21 03:39:00,
2013-04-20 21:44:00,41.0,20.2,29.73,West,279,6.3,6.3,43,0.00,,---,0.00,VWS V14.01,2013-04-21 03:44:00,
2013-04-20 21:49:00,40.8,20.6,29.73,WSW,253,6.7,6.7,44,0.00,,---,0.00,VWS V14.01,2013-04-21 03:49:00,
2013-04-20 21:54:00,40.6,21.0,29.76,West,276,7.2,9.2,45,0.00,,---,0.00,VWS V14.01,2013-04-21 03:54:00,
2013-04-20 21:59:00,40.3,22.2,29.76,SW,235,3.6,3.6,48,0.00,,---,0.00,VWS V14.01,2013-04-21 03:59:00,
2013-04-20 22:01:00,40.3,22.2,29.76,NW,318,10.1,10.1,48,0.00,,---,0.00,VWS V14.01,2013-04-21 04:01:00,
2013-04-20 22:06:00,39.9,22.3,29.73,West,271,4.9,6.3,49,0.00,,---,0.00,VWS V14.01,2013-04-21 04:06:00,
2013-04-20 22:11:00,39.7,22.2,29.73,West,267,4.0,5.4,49,0.00,,---,0.00,VWS V14.01,2013-04-21 04:11:00,
2013-04-20 22:16:00,39.9,20.3,29.73,WSW,256,10.5,10.5,45,0.00,,---,0.00,VWS V14.01,2013-04-21 04:16:00,
2013-04-20 22:21:00,40.3,20.1,29.76,West,270,8.7,8.7,44,0.00,,---,0.00,VWS V14.01,2013-04-21 04:21:00,
2013-04-20 22:26:00,40.5,19.7,29.76,WNW,298,8.1,8.7,43,0.00,,---,0.00,VWS V14.01,2013-04-21 04:26:00,
2013-04-20 22:31:00,40.5,20.3,29.76,WNW,282,17.0,17.0,44,0.00,,---,0.00,VWS V14.01,2013-04-21 04:31:00,
2013-04-20 22:36:00,40.3,20.1,29.76,WSW,249,10.5,10.5,44,0.00,,---,0.00,VWS V14.01,2013-04-21 04:36:00,
2013-04-20 22:41:00,40.3,21.2,29.76,NW,305,5.4,17.4,46,0.00,,---,0.00,VWS V14.01,2013-04-21 04:41:00,
2013-04-20 22:46:00,39.7,21.2,29.76,West,275,3.1,6.3,47,0.00,,---,0.00,VWS V14.01,2013-04-21 04:46:00,
2013-04-20 22:51:00,39.7,21.2,29.73,SW,228,8.1,8.1,47,0.00,,---,0.00,VWS V14.01,2013-04-21 04:51:00,
2013-04-20 22:56:00,39.7,20.7,29.73,WSW,255,10.1,10.1,46,0.00,,---,0.00,VWS V14.01,2013-04-21 04:56:00,
2013-04-20 23:01:00,39.9,20.8,29.73,WSW,249,3.6,8.1,46,0.00,,---,0.00,VWS V14.01,2013-04-21 05:01:00,
2013-04-20 23:06:00,39.9,20.3,29.73,WNW,286,3.1,3.1,45,0.00,,---,0.00,VWS V14.01,2013-04-21 05:06:00,
2013-04-20 23:11:00,39.9,20.3,29.73,East,88,3.1,3.1,45,0.00,,---,0.00,VWS V14.01,2013-04-21 05:11:00,
2013-04-20 23:16:00,39.9,20.3,29.73,WSW,246,3.6,5.4,45,0.00,,---,0.00,VWS V14.01,2013-04-21 05:16:00,
2013-04-20 23:21:00,39.7,19.6,29.76,ESE,121,4.0,7.2,44,0.00,,---,0.00,VWS V14.01,2013-04-21 05:21:00,
2013-04-20 23:26:00,39.9,19.2,29.76,SSW,199,5.4,7.2,43,0.00,,---,0.00,VWS V14.01,2013-04-21 05:26:00,
2013-04-20 23:31:00,39.9,19.2,29.76,WSW,246,3.6,3.6,43,0.00,,---,0.00,VWS V14.01,2013-04-21 05:31:00,
2013-04-20 23:36:00,39.9,19.2,29.76,South,186,0.0,0.0,43,0.00,,---,0.00,VWS V14.01,2013-04-21 05:36:00,
2013-04-20 23:41:00,39.7,18.5,29.76,West,277,0.0,5.8,42,0.00,,---,0.00,VWS V14.01,2013-04-21 05:41:00,
2013-04-20 23:46:00,39.7,18.0,29.76,SW,229,3.6,4.9,41,0.00,,---,0.00,VWS V14.01,2013-04-21 05:46:00,
2013-04-20 23:51:00,39.7,18.0,29.76,WSW,246,2.7,4.0,41,0.00,,---,0.00,VWS V14.01,2013-04-21 05:51:00,
2013-04-20 23:56:00,39.7,18.0,29.76,South,187,5.8,6.3,41,0.00,,---,0.00,VWS V14.01,2013-04-21 05:56:00,